"Pseudo-MPEC" for P10V0LK

Created 2019 Dec 13 0:07:06 UT using Find_Orb

Click here for an explanation of pseudo-MPECs

 
 Astrometry: 
     P10V0LK  C2019 11 29fNBgN9H-nWFeyN3_(i*\i]-saQ8,Astrometry=@(_nB-jHp)GEpF51
     P10V0LK  C2019 11 29^xkBZa2ro_3x?GWgCdC3(E*fG)\Ig[n0o0vg%[%3sw,uTsrp,U;6F51
     P10V0LK  C2019 11 29Abs#e`84JbD)#\^redacted;\oW4!,BN%;D1p:GkVtnB4a0_#T_,F51
     P10V0LK  C2019 11 291ujmk[F.$O3?MDigE4D?\@TCPmF^,-o(wMclickyxMbVuu*tqsRoF51
     P10V0LK  C2019 12 03945G2?heren2#T?r6qifor=JgE2C!br+\jWUvLHdIv[qc_\1STZ$F51
     P10V0LK  C2019 12 03u%jZRjfh4wx0#u?$KUO4nUqYr$4,\/eM(EYLeabKfTF_XL:b:.=eF51
     P10V0LK  C2019 12 03BijVuL?:SG`3tK55hi`.wam03br'J5ml%]HTcho=iU*=ZsR909TXF51
     P10V0LK  C2019 12 03IA@AHjW;]6R_jp'_3qnq4)jg+,ZyhNI/njW^!Mu7explanationYF51
     P10V0LK ^C2019 12 03.57378707 56 20.897+30 29 07.78   ~C3Ib 22.09GVNEOCP568
     P10V0LK ^C2019 12 03.57473807 56 20.865+30 29 07.95   ~C3Ib 22.11GVNEOCP568
     P10V0LK ^C2019 12 03.57569507 56 20.827+30 29 08.18   ~C3Ib 22.15GVNEOCP568

Station data:
(568) Mauna Kea  (N19.826116 W155.472200)  US/Hawaii.
(F51) Pan-STARRS 1, Haleakala  (N20.707235 W156.255910)  US/Hawaii.
   Observers N. Primak, A. Schultz, S. Watters, J. Thiel, T. Goggia. Measurer
   PS1 Science Consortium. 1.8-m Ritchey-Chrétien + CCD.

Orbital elements:  P10V0LK
   Perihelion 2019 Jan 17.666189 +/- 371 TT = 15:59:18 (JD 2458501.166189)
Epoch 2019 Dec  3.0 TT = JDT 2458820.5   Earth MOID: 0.7436   AutoNEOCP
M  62.98523230 +/- 90               (J2000 ecliptic)
n   0.19723947 +/- 0.0993           Peri.    3.17804 +/- 36
a   2.92285202 +/- 0.981            Node   347.67787 +/- 13
e   0.4012920 +/- 0.185             Incl.    7.51113 +/- 1.5
P   5.00                   H 17.8   G  0.15   U 11.2  SR
q 1.74993473 +/- 0.37    Q 4.09576930 +/- 2.94
From 11 observations 2019 Nov. 29-Dec. 3; mean residual 0".38
Residuals in arcseconds: 
191129 F51  .17+  .30-    191203 F51  .85+  .22-    191203 568  .70-  .01-    
191129 F51  .15-  .09+    191203 F51  .62+  .01+    191203 568  .70-  .01-    
191129 F51  .07-  .08+    191203 F51  .33+  .03-    191203 568  .76-  .05+    
191129 F51  .00   .14+    191203 F51  .41+  .20+    

Ephemerides (geocentric):
Date (UTC) HH   RA              Dec         delta   r     elong  mag " sig PA
---- -- -- --  -------------   -----------  ------ ------ -----  --- ---- ---
2019 12 13 00  07 50 00.258   +30 57 46.64  2.0150 2.8805 145.5 22.3  338   7
2019 12 13 01  07 49 58.252   +30 57 54.12  2.0149 2.8807 145.5 22.3  341   7
2019 12 13 02  07 49 56.243   +30 58 01.59  2.0147 2.8809 145.6 22.3  343   7
2019 12 13 03  07 49 54.231   +30 58 09.05  2.0146 2.8811 145.6 22.3  346   7
2019 12 13 04  07 49 52.217   +30 58 16.52  2.0144 2.8812 145.6 22.3  348   7
2019 12 13 05  07 49 50.200   +30 58 23.98  2.0143 2.8814 145.7 22.3  351   7
2019 12 13 06  07 49 48.180   +30 58 31.44  2.0141 2.8816 145.7 22.3  354   7
2019 12 13 07  07 49 46.158   +30 58 38.90  2.0140 2.8817 145.8 22.3  357   7
2019 12 13 08  07 49 44.133   +30 58 46.35  2.0138 2.8819 145.8 22.3  359   7
2019 12 13 09  07 49 42.105   +30 58 53.80  2.0137 2.8821 145.9 22.3  362   7
2019 12 13 10  07 49 40.075   +30 59 01.25  2.0135 2.8822 145.9 22.3  365   7
2019 12 13 11  07 49 38.042   +30 59 08.69  2.0134 2.8824 146.0 22.3  367   7
2019 12 13 12  07 49 36.007   +30 59 16.13  2.0132 2.8826 146.0 22.3  370   7
2019 12 13 13  07 49 33.969   +30 59 23.57  2.0131 2.8828 146.1 22.3  373   7
2019 12 13 14  07 49 31.928   +30 59 31.01  2.0129 2.8829 146.1 22.3  376   7
2019 12 13 15  07 49 29.884   +30 59 38.44  2.0128 2.8831 146.2 22.3  378   7
2019 12 13 16  07 49 27.838   +30 59 45.87  2.0126 2.8833 146.2 22.3  381   7
2019 12 13 17  07 49 25.790   +30 59 53.30  2.0125 2.8834 146.3 22.3  384   7
2019 12 13 18  07 49 23.738   +31 00 00.72  2.0124 2.8836 146.3 22.3  387   7
2019 12 13 19  07 49 21.684   +31 00 08.14  2.0122 2.8838 146.4 22.3  390   7
2019 12 13 20  07 49 19.628   +31 00 15.56  2.0121 2.8840 146.4 22.3  392   7
2019 12 13 21  07 49 17.569   +31 00 22.97  2.0119 2.8841 146.5 22.3  395   7
2019 12 13 22  07 49 15.507   +31 00 30.38  2.0118 2.8843 146.5 22.3  398   7
2019 12 13 23  07 49 13.442   +31 00 37.79  2.0116 2.8845 146.6 22.3  401   6
2019 12 14 00  07 49 11.375   +31 00 45.19  2.0115 2.8846 146.6 22.3  404   6
2019 12 14 01  07 49 09.306   +31 00 52.59  2.0114 2.8848 146.6 22.3  407   6
2019 12 14 02  07 49 07.233   +31 00 59.99  2.0112 2.8850 146.7 22.3  409   6
2019 12 14 03  07 49 05.159   +31 01 07.39  2.0111 2.8851 146.7 22.3  412   6
2019 12 14 04  07 49 03.081   +31 01 14.78  2.0109 2.8853 146.8 22.3  415   6
2019 12 14 05  07 49 01.001   +31 01 22.17  2.0108 2.8855 146.8 22.3  418   6
2019 12 14 06  07 48 58.919   +31 01 29.55  2.0107 2.8857 146.9 22.3  421   6
2019 12 14 07  07 48 56.834   +31 01 36.93  2.0105 2.8858 146.9 22.3  424   6
2019 12 14 08  07 48 54.746   +31 01 44.31  2.0104 2.8860 147.0 22.3  427   6
2019 12 14 09  07 48 52.655   +31 01 51.69  2.0102 2.8862 147.0 22.3  430   6
2019 12 14 10  07 48 50.562   +31 01 59.06  2.0101 2.8863 147.1 22.3  433   6
2019 12 14 11  07 48 48.467   +31 02 06.43  2.0100 2.8865 147.1 22.3  436   6
2019 12 14 12  07 48 46.369   +31 02 13.79  2.0098 2.8867 147.2 22.3  439   6
2019 12 14 13  07 48 44.268   +31 02 21.15  2.0097 2.8869 147.2 22.3  442   6
2019 12 14 14  07 48 42.165   +31 02 28.51  2.0096 2.8870 147.3 22.3  445   6
2019 12 14 15  07 48 40.059   +31 02 35.86  2.0094 2.8872 147.3 22.3  448   6
2019 12 14 16  07 48 37.951   +31 02 43.21  2.0093 2.8874 147.4 22.3  451   6
2019 12 14 17  07 48 35.840   +31 02 50.56  2.0092 2.8875 147.4 22.3  454   6
2019 12 14 18  07 48 33.727   +31 02 57.90  2.0090 2.8877 147.5 22.3  457   6
2019 12 14 19  07 48 31.611   +31 03 05.24  2.0089 2.8879 147.5 22.3  460   6
2019 12 14 20  07 48 29.492   +31 03 12.58  2.0088 2.8880 147.5 22.3  463   6
2019 12 14 21  07 48 27.371   +31 03 19.91  2.0086 2.8882 147.6 22.3  466   6
2019 12 14 22  07 48 25.247   +31 03 27.24  2.0085 2.8884 147.6 22.3  469   6
2019 12 14 23  07 48 23.121   +31 03 34.56  2.0084 2.8886 147.7 22.3  472   6